This is the latest recevied weather packets stored in our database for station/object 9W2TBJ-4. If no packets are shown the sender has not sent any weather packets the latest 10 day(s).
| Time | Temp. | Humidity | Pressure | Rain* | Wind** | Luminosity | Snow |
|---|---|---|---|---|---|---|---|
| 1777939213 | 30.56° C | 63% | 1010.8 hPa | - | - | - | - |
| 1777939150 | 30.56° C | 63% | 1010.8 hPa | - | - | - | - |
| 1777937950 | 30.56° C | 62% | 1010.9 hPa | - | - | - | - |
| 1777936750 | 30° C | 66% | 1010.9 hPa | - | - | - | - |
| 1777935550 | 29.44° C | 66% | 1010.7 hPa | - | - | - | - |
| 1777934350 | 30° C | 64% | 1010.5 hPa | - | - | - | - |
| 1777933150 | 30° C | 66% | 1010.5 hPa | - | - | - | - |
| 1777931951 | 29.44° C | 66% | 1010.1 hPa | - | - | - | - |
| 1777930751 | 30° C | 66% | 1010.1 hPa | - | - | - | - |
| 1777929551 | 30° C | 65% | 1010 hPa | - | - | - | - |
| 1777928351 | 30° C | 65% | 1010.1 hPa | - | - | - | - |
| 1777927151 | 30° C | 66% | 1010 hPa | - | - | - | - |
| 1777925951 | 30° C | 67% | 1010 hPa | - | - | - | - |
| 1777924750 | 30.56° C | 64% | 1010.2 hPa | - | - | - | - |
| 1777923550 | 30.56° C | 64% | 1010.3 hPa | - | - | - | - |
| 1777922350 | 30.56° C | 64% | 1010.4 hPa | - | - | - | - |
| 1777921150 | 30° C | 67% | 1010.5 hPa | - | - | - | - |
| 1777919950 | 30° C | 66% | 1010.7 hPa | - | - | - | - |
| 1777918750 | 30.56° C | 65% | 1010.9 hPa | - | - | - | - |
| 1777917550 | 31.11° C | 64% | 1011.4 hPa | - | - | - | - |
| 1777916350 | 30.56° C | 65% | 1011.6 hPa | - | - | - | - |
| 1777915150 | 30° C | 68% | 1011.8 hPa | - | - | - | - |
| 1777913950 | 30.56° C | 65% | 1012.1 hPa | - | - | - | - |
| 1777912750 | 31.11° C | 63% | 1012.2 hPa | - | - | - | - |
| 1777911550 | 31.11° C | 62% | 1012.3 hPa | - | - | - | - |
* Rain since midnight (hover to see other rain measurements)
** Current wind speed in m/s (hover to see current wind gust speed)